{"data":{"norad_id":49210,"epoch":"2026-05-25T04:34:11.169120Z","epoch_age_seconds":58001,"freshness":"FRESH","line1":"1 49210U 21083AA  26145.19040705 -.00000028  00000+0 -11171-3 0  9999","line2":"2 49210  87.8931 324.8247 0002441  96.1112 264.0296 13.13461502227876","mean_motion":13.13461502,"eccentricity":0.0002441,"inclination_deg":87.8931,"raan_deg":324.8247,"arg_perigee_deg":96.1112,"mean_anomaly_deg":264.0296,"bstar":-0.00011171,"rev_number":22787,"period_min":109.63397083259,"perigee_km":1207.945913683,"apogee_km":1211.6503436128,"semimajor_km":7587.9351286479,"source":"CELESTRAK","updated_at":"2026-05-25T13:38:22.515858Z"}}